Weather in Chartak

Uzbekistan     41°04′37″N   71°48′51″E
temp.,
°C
wind,
m/s
gust,
m/s
humid.,
%
clouds,
%
prec.,
mm/h
press.,
hPa
HPBL,
m
29 july, thu
thu2923:00+27ene22250 0.0 99913
02:00+25ene34293 0.0 100052
05:00+24ene463115 0.0 100090
08:00+31e34184 0.0 1001922
11:00+37wnw13131 0.0 9991597
14:00+40sw66119 0.0 9972722
17:00+39sw8898 0.0 9962475
20:00+33sw714132 0.0 997472
30 july, fri
fri3023:00+27s05190 0.0 999101
02:00+24e242412 0.0 100180
05:00+22n2326100 0.0 100346
08:00+29nne241711 0.0 1004688
11:00+35ne231399 0.0 10031268
14:00+38wsw34115 0.0 10013102
17:00+38sw75120 0.0 10003073
20:00+30sw34190 0.0 100247
31 july, sat
sat3123:00+26ene45310 0.0 100362
02:00+24ne35350 0.0 100469
05:00+23ne35360 0.0 100570
08:00+31e45210 0.0 1005652
11:00+37sse22110 0.0 10031545
14:00+40sw2290 0.0 10002801
17:00+40sw3391 0.0 9982941
20:00+32wsw461522 0.0 99968
1 august, sun
sun123:00+28nne332171 0.0 100021
02:00+25ne342330 0.0 100142
05:00+25ne222697 0.0 100120
08:00+32e341750 0.0 1001384
11:00+39se32116 0.0 9991363
14:00+42sw3290 0.0 9963284
17:00+42wsw5490 0.0 9953824
20:00+31nw342052 0.0 99739
2 august, mon
mon223:00+28nne23274 0.0 99827
02:00+26ne33295 0.0 99931
05:00+24ne343495 0.1 99939
08:00+31e4524100 0.1 1000449
11:00+39ese231212 0.1 9991292
14:00+42ssw3292 0.0 9963183
17:00+42wsw5495 0.0 9963836
20:00+32nw332086 0.0 99838